STARLINK-34587, 64735

Orbit data source: Space-Track

STARLINK-34587, 64735 is a payload satellite owned by SpaceX/Seattle (US) in LEO that was launched on Wed, 02 Jul 2025 UTC via an FALCON 9 launch vehicle from the Air Force Eastern Test Range (AFETR). Payload-class satellites include a variety of spacecraft equipped with specific instruments for various scientific and technological missions. These include communications satellites like Starlink; space stations such as the ISS; scientific satellites like the Hubble; Earth observation satellites from companies like Planet Labs, Umbra, and HawkEye 360; GPS; miniature CubeSats for education and research; and military/defense satellites.

Loading next visibility...
Identifier
64735, 2025-144M
Orbit
LEO
Last TLE update
13 hours ago
Origin
Manufacturer
SpaceX/Seattle
Mission
Operational spacecraft
Bus & Motor
STARLINK V2MO, Unknown motor
Mass
575 kg wet, ~530 kg dry
Launch date (UTC)
2025-07-02 (1 week ago)
Launch vehicle
FALCON 9
Launch site
Air Force Eastern Test Range (AFETR)
Object type
Payload
Rocket body
Debris
Shape & HBR
Unknown
Radar Cross Section
RCS unknown

Expand to show TLE details & history

TLE from 13 hours ago
0 STARLINK-34587
1 64735U 25144M   25191.66668981 -.01165452  00000-0 -47815-2 0  9992
2 64735  53.1537 231.7358 0000851  73.4429  14.5621 15.88023608  2511
Epoch: 2025-07-10T16:00Z
TLE epoch observation values (Epoch: 2025-07-10T16:00:01.999Z)
Latitude
53.26303°
Longitude
149.57352°
Altitude
313.807 km
Speed
7.727 km/s
True Right ascension
21h 13m 38s
True Declination
53° 05' 13"
Sunlit
Object was in daylight at epoch
Visualization orbit readout
Latitude
-9.59294°
Longitude
-112.50907°
Altitude
314.556 km
Speed
7.72 km/s
Apparent Right ascension
04h 12m 09s
Apparent Declination
-24° 26' 52"
Sunlit
Object is in daylight
Visualization observer readout
Local Sidereal Time
16:48:23
Azimuth
28.922° NE
Elevation
-72.759°
Doppler factor
1
Orbital elements
Apogee altitude
308.657 km
Perigee altitude
307.519 km
Semi-major axis
6,686.225 km
Eccentricity
0.00009
Inclination
53.1537°
RAAN
231.7358°
Arg. of periapsis
73.4429°
True anomaly
Unknown
Mean anomaly
14.5621°
Eccentric anomaly
Unknown
Mean motion
3.96983 °/min
Orbital period
90.68 mins
BSTAR
-0.0047815
Loading maneuver chart data...
Loading SW <> Apogee altitude chart data...
Loading historical data...
Loading historical data...
Loading historical data...
Loading historical data...
Loading historical data...
Loading historical data...
Loading historical data...

STARLINK-34587 Visibility forecast

Observer location: undefined°, undefined°

Span
Click to sort rows by Start time (UTC) header in descending order
Start Az.
Max El. time (UTC)
Max El. Az.
Max El.
End time (UTC)
End Az.
5 mins2025-07-11 05:24:29.766Z223.659° SW2025-07-11 05:27:29.766Z72.796° E39.189°2025-07-11 05:29:29.766Z53.556° ENE
|